Hourly Weather Roundup
Issued by NWS Central Illinois

Home | Current Version | Previous Version | Text Only | Print | Product List | Glossary On
Versions: 1 2 3 4 5 6 7 8 9 10 11 12 13 14 15 16 17 18 19 20 21 22 23 24 25 26 27 28 29 30 31 32 33 34 35 36 37 38 39 40 41 42 43 44 45 46 47 48 49 50
000
NZUS43 KILX 240410
HWRILX

AREA WEATHER ROUNDUP
NATIONAL WEATHER SERVICE, LINCOLN IL
1000 PM CST SUN NOV 23 2014


CITY           SKY/WX    TMP DP  RH WIND       PRES   REMARKS
BLOOMINGTON    LGT RAIN  50  50 100 SW8       29.18F FOG
CHAMPAIGN      LGT RAIN  50  50 100 SW7       29.19F VSB 1/2
DECATUR        CLOUDY    52  32  46 SW13      29.20F FOG
FLORA          CLOUDY    54  54 100 SW14      29.26R
GALESBURG      FOG       48  48 100 S5        29.19S VSB 1/2
JACKSONVILLE   CLOUDY    52  51  96 SW8       29.21F FOG
LACON          LGT RAIN  48  47  97 CALM      29.17F VSB 1/2
LAWRENCEVILLE  CLOUDY    57  56  96 SW22G33   29.25R
LITCHFIELD     CLOUDY    50  49  95 SW9       29.23S FOG
$$


CITY           SKY/WX    TMP DP  RH WIND       PRES   REMARKS
LINCOLN        RAIN      51  50  97 SW3       29.18F
MACOMB         CLOUDY    50  50 100 SW6       29.22S FOG
MATTOON        LGT RAIN  52  51  97 SW9       29.20S
MT CARMEL AP   CLOUDY    59  54  82 SW17G23   29.25R
OLNEY-NOBLE AP CLOUDY    54  54 100 SW5       29.26R
PARIS          RAIN      52  52 100 S5        29.19F
PEORIA         FOG       51  48  89 SW6       29.18F VSB 1/2
PONTIAC        LGT RAIN  50  50 100 CALM      29.17F VSB 3/4
RANTOUL        LGT RAIN  52  51  98 W3        29.17F
ROBINSON       DRIZZLE   55  54  98 SW18G24   29.24R
SPRINGFIELD    LGT RAIN  52  50  93 SW6       29.21F
TAYLORVILLE    CLOUDY    50  50 100 SW10      29.21S FOG
$$

...REGIONAL REPORTS...


CITY           SKY/WX    TMP DP  RH WIND       PRES   REMARKS
CHICAGO O`HARE LGT RAIN  49  48  97 CALM      29.16F FOG
KANKAKEE       LGT RAIN  49  49  99 CALM      29.16F
MOLINE         FOG       49  48  97 CALM      29.17F VSB 1/2
MOUNT VERNON   CLOUDY    54  52  94 SW15      29.29R
PITTSFIELD     CLOUDY    53  52  95 SW7       29.22F VSB 3/4
QUINCY         LGT RAIN  51  50  96 SW7       29.22F VSB 1
ROCKFORD       LGT RAIN  48  46  93 CALM      29.19F VSB 1
$$


CITY           SKY/WX    TMP DP  RH WIND       PRES   REMARKS
BURLINGTON     CLOUDY    51  51 100 NW9       29.20S FOG
CEDAR RAPIDS   CLOUDY    41  41 100 NW18G26   29.23R FOG     WCI  32
DES MOINES     LGT RAIN  39  30  70 NW18G39   29.39F WCI  30
KIRKSVILLE     LGT RAIN  44  42  93 NW15G23   29.32R FOG
OTTUMWA        LGT RAIN  39  36  89 NW26G38   29.31R WCI  28
ST LOUIS       CLOUDY    56  54  93 SW10      29.25S
$$


CITY           SKY/WX    TMP DP  RH WIND       PRES   REMARKS
TERRE HAUTE    LGT RAIN  53  52  96 SW8       29.19F
EVANSVILLE     CLOUDY    59  55  87 SW21      29.31R
INDIANAPOLIS   LGT RAIN  53  53 100 S18G28    29.16F
LAFAYETTE      RAIN      51  51 100 CALM      29.16F FOG
MADISON        LGT RAIN  47  46  97 CALM      29.19F FOG
MILWAUKEE      LGT RAIN  46  45  96 SE3       29.18F VSB 1
$$





USA.gov is the U.S. government's official web portal to all federal, state and local government web resources and services.